Voltar ao catálogo

SPACEMOBILE-003

AtivoComunicaçõesVLEO
NORAD 61045·PAYLOAD·🇺🇸 United States

Lançado Sep 12, 2024 de Cape Canaveral Space Force Station

Loading…

Próximas Passagens (próximas 24 horas)

TLE

AtualizadoSource: CelesTrak SupGP

Época: Sep 15, 2026, 05:08 UTC

1 61045C 24163A   26258.21457140 -.00200940  00000+0 -90748-2 0  2583
2 61045  52.9663 255.5005 0005832  34.7712  89.0153 15.20453653    14

Acompanhe SPACEMOBILE-003 em tempo real com AllMySat

Download on the App Store